| time (UTC) | temp C | wind direction | speed KPH | gust KPH | rain 1hr cm | rain 24hr cm | rain mn cm | humidity % | barometer mb |
| 20260507093129 | 12 | 290 | 9.7 | 0.0 | 0.00 | 0.00 | 0.00 | 10 | 1014.7 |
| 20260507092629 | 12 | 290 | 9.7 | 0.0 | 0.00 | 0.00 | 0.00 | 10 | 1014.7 |
| 20260507092129 | 12 | 290 | 9.7 | 0.0 | 0.00 | 0.00 | 0.00 | 10 | 1014.7 |
| 20260507091629 | 12 | 290 | 9.7 | 0.0 | 0.00 | 0.00 | 0.00 | 10 | 1014.6 |
| 20260507091129 | 12 | 290 | 9.7 | 0.0 | 0.00 | 0.00 | 0.00 | 10 | 1014.6 |
| 20260507090629 | 12 | 290 | 9.7 | 0.0 | 0.00 | 0.00 | 0.00 | 10 | 1014.5 |
| 20260507090129 | 12 | 290 | 8.0 | 0.0 | 0.00 | 0.00 | 0.00 | 10 | 1014.5 |
| 20260507085629 | 12 | 290 | 8.0 | 0.0 | 0.00 | 0.00 | 0.00 | 10 | 1014.4 |
| 20260507085129 | 11 | 290 | 8.0 | 0.0 | 0.00 | 0.00 | 0.00 | 10 | 1014.5 |
| 20260507084628 | 11 | 290 | 8.0 | 0.0 | 0.00 | 0.00 | 0.00 | 10 | 1014.5 |
| 20260507084128 | 11 | 290 | 8.0 | 0.0 | 0.00 | 0.00 | 0.00 | 10 | 1014.4 |
| 20260507083628 | 11 | 290 | 8.0 | 0.0 | 0.00 | 0.00 | 0.00 | 10 | 1014.4 |
| 20260507083128 | 11 | 320 | 9.7 | 0.0 | 0.00 | 0.00 | 0.00 | 10 | 1014.4 |
| 20260507082628 | 11 | 320 | 9.7 | 0.0 | 0.00 | 0.00 | 0.00 | 10 | 1014.3 |
| 20260507082128 | 11 | 320 | 9.7 | 0.0 | 0.00 | 0.00 | 0.00 | 10 | 1014.3 |
| 20260507081628 | 11 | 320 | 9.7 | 0.0 | 0.00 | 0.00 | 0.00 | 10 | 1014.3 |
| 20260507081128 | 11 | 320 | 9.7 | 0.0 | 0.00 | 0.00 | 0.00 | 10 | 1014.3 |
| 20260507080628 | 11 | 290 | 12.9 | 0.0 | 0.00 | 0.00 | 0.00 | 10 | 1014.2 |
| 20260507080128 | 10 | 290 | 12.9 | 0.0 | 0.00 | 0.00 | 0.00 | 10 | 1014.3 |
| 20260507075628 | 11 | 290 | 12.9 | 0.0 | 0.00 | 0.00 | 0.00 | 10 | 1014.1 |
| 20260507075128 | 11 | 290 | 12.9 | 0.0 | 0.00 | 0.00 | 0.00 | 10 | 1014.0 |
| 20260507074628 | 11 | 290 | 12.9 | 0.0 | 0.00 | 0.00 | 0.00 | 10 | 1014.0 |
| 20260507074128 | 11 | 300 | 11.3 | 0.0 | 0.00 | 0.00 | 0.00 | 10 | 1013.9 |
| 20260507073628 | 11 | 300 | 11.3 | 0.0 | 0.00 | 0.00 | 0.00 | 10 | 1013.9 |
| 20260507073128 | 11 | 300 | 11.3 | 0.0 | 0.00 | 0.00 | 0.00 | 10 | 1013.8 |
| 20260507072628 | 11 | 300 | 11.3 | 0.0 | 0.00 | 0.00 | 0.00 | 10 | 1013.8 |
| 20260507072127 | 11 | 300 | 11.3 | 0.0 | 0.00 | 0.00 | 0.00 | 10 | 1013.7 |
| 20260507071627 | 11 | 280 | 11.3 | 0.0 | 0.00 | 0.00 | 0.00 | 10 | 1013.6 |
| 20260507071127 | 11 | 280 | 11.3 | 0.0 | 0.00 | 0.00 | 0.00 | 10 | 1013.7 |
| 20260507070627 | 11 | 280 | 11.3 | 0.0 | 0.00 | 0.00 | 0.00 | 10 | 1013.6 |
| 20260507070127 | 11 | 280 | 11.3 | 0.0 | 0.00 | 0.00 | 0.00 | 10 | 1013.6 |
| 20260507065627 | 11 | 280 | 11.3 | 0.0 | 0.00 | 0.00 | 0.00 | 10 | 1013.6 |
| 20260507065127 | 11 | 280 | 11.3 | 0.0 | 0.00 | 0.00 | 0.00 | 10 | 1013.6 |
| 20260507064627 | 11 | 280 | 11.3 | 0.0 | 0.00 | 0.00 | 0.00 | 10 | 1013.5 |
| 20260507064127 | 10 | 280 | 11.3 | 0.0 | 0.00 | 0.00 | 0.00 | 10 | 1013.4 |
| 20260507063627 | 10 | 280 | 11.3 | 0.0 | 0.00 | 0.00 | 0.00 | 10 | 1013.5 |
| 20260507063127 | 10 | 280 | 9.7 | 0.0 | 0.00 | 0.00 | 0.00 | 10 | 1013.4 |
| 20260507062627 | 10 | 280 | 9.7 | 0.0 | 0.00 | 0.00 | 0.00 | 10 | 1013.4 |
| 20260507062127 | 10 | 280 | 9.7 | 0.0 | 0.00 | 0.00 | 0.00 | 10 | 1013.3 |
| 20260507061627 | 10 | 280 | 9.7 | 0.0 | 0.00 | 0.00 | 0.00 | 10 | 1013.2 |
| 20260507061127 | 10 | 280 | 9.7 | 0.0 | 0.00 | 0.00 | 0.00 | 10 | 1013.1 |
| 20260507060627 | 10 | 280 | 9.7 | 0.0 | 0.00 | 0.00 | 0.00 | 10 | 1013.0 |
| 20260507060127 | 10 | 280 | 11.3 | 0.0 | 0.00 | 0.00 | 0.00 | 10 | 1012.9 |
| 20260507055627 | 10 | 280 | 11.3 | 0.0 | 0.00 | 0.00 | 0.00 | 10 | 1012.9 |
| 20260507055127 | 10 | 280 | 11.3 | 0.0 | 0.00 | 0.00 | 0.00 | 10 | 1012.8 |
| 20260507054626 | 10 | 280 | 11.3 | 0.0 | 0.00 | 0.00 | 0.00 | 10 | 1012.7 |
| 20260507054127 | 10 | 280 | 11.3 | 0.0 | 0.00 | 0.00 | 0.00 | 10 | 1012.7 |
| 20260507053626 | 10 | 280 | 11.3 | 0.0 | 0.00 | 0.00 | 0.00 | 10 | 1012.8 |
| 20260507053126 | 10 | 270 | 9.7 | 0.0 | 0.00 | 0.00 | 0.00 | 10 | 1012.7 |
| 20260507052626 | 10 | 270 | 9.7 | 0.0 | 0.00 | 0.00 | 0.00 | 10 | 1012.6 |
| 20260507052126 | 10 | 270 | 9.7 | 0.0 | 0.00 | 0.00 | 0.00 | 10 | 1012.6 |
| 20260507051626 | 10 | 270 | 9.7 | 0.0 | 0.00 | 0.00 | 0.00 | 10 | 1012.5 |
| 20260507051126 | 10 | 270 | 9.7 | 0.0 | 0.00 | 0.00 | 0.00 | 10 | 1012.4 |
| 20260507050626 | 10 | 280 | 8.0 | 0.0 | 0.00 | 0.00 | 0.00 | 10 | 1012.4 |
| 20260507050126 | 10 | 280 | 8.0 | 0.0 | 0.00 | 0.00 | 0.00 | 10 | 1012.3 |
| 20260507045626 | 10 | 280 | 8.0 | 0.0 | 0.00 | 0.00 | 0.00 | 10 | 1012.3 |
| 20260507045126 | 10 | 280 | 8.0 | 0.0 | 0.00 | 0.00 | 0.00 | 10 | 1012.2 |
| 20260507044626 | 10 | 280 | 8.0 | 0.0 | 0.00 | 0.00 | 0.00 | 10 | 1012.1 |
| 20260507044126 | 10 | 300 | 12.9 | 0.0 | 0.00 | 0.00 | 0.00 | 10 | 1012.1 |
| 20260507043626 | 10 | 300 | 12.9 | 0.0 | 0.00 | 0.00 | 0.00 | 10 | 1012.0 |
| 20260507043126 | 10 | 300 | 12.9 | 0.0 | 0.00 | 0.00 | 0.00 | 10 | 1012.0 |
| 20260507042626 | 10 | 300 | 12.9 | 0.0 | 0.00 | 0.00 | 0.00 | 10 | 1011.8 |
| 20260507042126 | 10 | 300 | 12.9 | 0.0 | 0.00 | 0.00 | 0.00 | 10 | 1011.8 |
| 20260507041625 | 10 | 300 | 12.9 | 0.0 | 0.00 | 0.00 | 0.00 | 10 | 1011.7 |
| 20260507041125 | 10 | 300 | 12.9 | 0.0 | 0.00 | 0.00 | 0.00 | 10 | 1011.6 |
| 20260507040625 | 10 | 300 | 12.9 | 0.0 | 0.00 | 0.00 | 0.00 | 10 | 1011.6 |
| 20260507040125 | 10 | 310 | 9.7 | 0.0 | 0.00 | 0.00 | 0.00 | 10 | 1011.6 |
| 20260507035625 | 10 | 310 | 9.7 | 0.0 | 0.00 | 0.00 | 0.00 | 10 | 1011.5 |
| 20260507035125 | 10 | 310 | 9.7 | 0.0 | 0.00 | 0.00 | 0.00 | 10 | 1011.5 |
| 20260507034625 | 10 | 300 | 8.0 | 0.0 | 0.00 | 0.00 | 0.00 | 10 | 1011.5 |
| 20260507034125 | 10 | 300 | 8.0 | 0.0 | 0.00 | 0.00 | 0.00 | 10 | 1011.5 |
| 20260507033625 | 10 | 300 | 8.0 | 0.0 | 0.00 | 0.00 | 0.00 | 10 | 1011.4 |
| 20260507033125 | 10 | 300 | 8.0 | 0.0 | 0.00 | 0.00 | 0.00 | 10 | 1011.4 |
| 20260507032625 | 10 | 300 | 8.0 | 0.0 | 0.00 | 0.00 | 0.00 | 10 | 1011.3 |
| 20260507032125 | 10 | 300 | 8.0 | 0.0 | 0.00 | 0.00 | 0.00 | 10 | 1011.3 |
| 20260507031625 | 10 | 300 | 8.0 | 0.0 | 0.00 | 0.00 | 0.00 | 10 | 1011.3 |
| 20260507031125 | 10 | 310 | 8.0 | 0.0 | 0.00 | 0.00 | 0.00 | 10 | 1011.3 |
| 20260507030625 | 10 | 310 | 8.0 | 0.0 | 0.00 | 0.00 | 0.00 | 10 | 1011.2 |
| 20260507030125 | 10 | 310 | 8.0 | 0.0 | 0.00 | 0.00 | 0.00 | 10 | 1011.2 |
| 20260507025625 | 11 | 310 | 8.0 | 0.0 | 0.00 | 0.00 | 0.00 | 10 | 1011.2 |
| 20260507025125 | 10 | 310 | 8.0 | 0.0 | 0.00 | 0.00 | 0.00 | 10 | 1011.2 |
| 20260507024625 | 10 | 310 | 8.0 | 0.0 | 0.00 | 0.00 | 0.00 | 10 | 1011.2 |
| 20260507024124 | 11 | 310 | 8.0 | 0.0 | 0.00 | 0.00 | 0.00 | 10 | 1011.2 |
| 20260507023625 | 11 | 300 | 9.7 | 0.0 | 0.00 | 0.00 | 0.00 | 10 | 1011.2 |
| 20260507023124 | 11 | 300 | 9.7 | 0.0 | 0.00 | 0.00 | 0.00 | 10 | 1011.2 |
| 20260507022624 | 11 | 300 | 9.7 | 0.0 | 0.00 | 0.00 | 0.00 | 10 | 1011.2 |
| 20260507022124 | 11 | 300 | 9.7 | 0.0 | 0.00 | 0.00 | 0.00 | 10 | 1011.1 |
| 20260507021624 | 10 | 280 | 9.7 | 0.0 | 0.00 | 0.00 | 0.00 | 10 | 1011.0 |
| 20260507021124 | 10 | 280 | 9.7 | 0.0 | 0.00 | 0.00 | 0.00 | 10 | 1011.0 |
| 20260507020624 | 10 | 280 | 9.7 | 0.0 | 0.00 | 0.00 | 0.00 | 10 | 1011.0 |
| 20260507020124 | 10 | 280 | 9.7 | 0.0 | 0.00 | 0.00 | 0.00 | 10 | 1010.9 |
| 20260507015624 | 11 | 280 | 9.7 | 0.0 | 0.00 | 0.00 | 0.00 | 10 | 1010.9 |
| 20260507015124 | 11 | 280 | 9.7 | 0.0 | 0.00 | 0.00 | 0.00 | 10 | 1010.8 |
| 20260507014624 | 11 | 280 | 9.7 | 0.0 | 0.00 | 0.00 | 0.00 | 10 | 1010.8 |
| 20260507014124 | 10 | 280 | 9.7 | 0.0 | 0.00 | 0.00 | 0.00 | 10 | 1010.7 |
| 20260507013624 | 10 | 280 | 9.7 | 0.0 | 0.00 | 0.00 | 0.00 | 10 | 1010.7 |
| 20260507013124 | 10 | 280 | 8.0 | 0.0 | 0.00 | 0.00 | 0.00 | 10 | 1010.6 |
| 20260507012624 | 11 | 280 | 8.0 | 0.0 | 0.00 | 0.00 | 0.00 | 10 | 1010.6 |
| 20260507012123 | 11 | 280 | 8.0 | 0.0 | 0.00 | 0.00 | 0.00 | 10 | 1010.6 |
| 20260507011623 | 10 | 280 | 8.0 | 0.0 | 0.00 | 0.00 | 0.00 | 10 | 1010.6 |
| 20260507011124 | 10 | 280 | 8.0 | 0.0 | 0.00 | 0.00 | 0.00 | 10 | 1010.6 |
| 20260507010623 | 10 | 280 | 8.0 | 0.0 | 0.00 | 0.00 | 0.00 | 10 | 1010.5 |
| 20260507010123 | 10 | 300 | 8.0 | 0.0 | 0.00 | 0.00 | 0.00 | 10 | 1010.5 |
| 20260507005623 | 10 | 300 | 8.0 | 0.0 | 0.00 | 0.00 | 0.00 | 10 | 1010.5 |
| 20260507005123 | 10 | 270 | 8.0 | 0.0 | 0.00 | 0.00 | 0.00 | 10 | 1010.4 |
| 20260507004623 | 10 | 270 | 8.0 | 0.0 | 0.00 | 0.00 | 0.00 | 10 | 1010.5 |
| 20260507004123 | 10 | 270 | 8.0 | 0.0 | 0.00 | 0.00 | 0.00 | 10 | 1010.5 |
| 20260507003623 | 10 | 260 | 8.0 | 0.0 | 0.00 | 0.00 | 0.00 | 10 | 1010.5 |
| 20260507003123 | 10 | 260 | 8.0 | 0.0 | 0.00 | 0.00 | 0.00 | 10 | 1010.5 |
| 20260507002623 | 10 | 260 | 8.0 | 0.0 | 0.00 | 0.00 | 0.00 | 10 | 1010.5 |
| 20260507002123 | 10 | 260 | 8.0 | 0.0 | 0.00 | 0.00 | 0.00 | 10 | 1010.5 |
| 20260507001623 | 10 | 260 | 8.0 | 0.0 | 0.00 | 0.00 | 0.00 | 10 | 1010.5 |
| 20260507001123 | 11 | 260 | 8.0 | 0.0 | 0.00 | 0.00 | 0.00 | 10 | 1010.5 |
| 20260507000623 | 10 | 270 | 8.0 | 0.0 | 0.00 | 0.00 | 0.00 | 10 | 1010.4 |
| 20260507000123 | 11 | 270 | 8.0 | 0.0 | 0.00 | 0.00 | 0.00 | 10 | 1010.4 |
| 20260506235623 | 11 | 270 | 8.0 | 0.0 | 0.00 | 0.00 | 0.00 | 10 | 1010.4 |
| 20260506235123 | 11 | 270 | 8.0 | 0.0 | 0.00 | 0.00 | 0.00 | 10 | 1010.4 |
| 20260506234622 | 10 | 270 | 8.0 | 0.0 | 0.00 | 0.00 | 0.00 | 10 | 1010.4 |
| 20260506234122 | 10 | 280 | 6.4 | 0.0 | 0.00 | 0.00 | 0.00 | 10 | 1010.4 |
| 20260506233622 | 10 | 280 | 6.4 | 0.0 | 0.00 | 0.00 | 0.00 | 10 | 1010.3 |
| 20260506233122 | 10 | 280 | 6.4 | 0.0 | 0.00 | 0.00 | 0.00 | 10 | 1010.3 |
| 20260506232622 | 10 | 280 | 6.4 | 0.0 | 0.00 | 0.00 | 0.00 | 10 | 1010.3 |
| 20260506232122 | 10 | 280 | 6.4 | 0.0 | 0.00 | 0.00 | 0.00 | 10 | 1010.3 |
| 20260506231622 | 10 | 290 | 6.4 | 0.0 | 0.00 | 0.00 | 0.00 | 10 | 1010.3 |
| 20260506231122 | 11 | 290 | 6.4 | 0.0 | 0.00 | 0.00 | 0.00 | 10 | 1010.2 |
| 20260506230622 | 10 | 290 | 6.4 | 0.0 | 0.00 | 0.00 | 0.00 | 10 | 1010.2 |
| 20260506230122 | 10 | 300 | 9.7 | 0.0 | 0.00 | 0.00 | 0.00 | 10 | 1010.1 |
| 20260506225622 | 10 | 300 | 9.7 | 0.0 | 0.00 | 0.00 | 0.00 | 10 | 1010.1 |
| 20260506225122 | 10 | 300 | 9.7 | 0.0 | 0.00 | 0.00 | 0.00 | 10 | 1010.1 |
| 20260506224622 | 11 | 300 | 9.7 | 0.0 | 0.00 | 0.00 | 0.00 | 10 | 1010.0 |
| 20260506224122 | 11 | 300 | 9.7 | 0.0 | 0.00 | 0.00 | 0.00 | 10 | 1010.0 |
| 20260506223621 | 11 | 300 | 9.7 | 0.0 | 0.00 | 0.00 | 0.00 | 10 | 1009.9 |
| 20260506223121 | 11 | 300 | 9.7 | 0.0 | 0.00 | 0.00 | 0.00 | 10 | 1009.8 |
| 20260506222621 | 10 | 300 | 9.7 | 0.0 | 0.00 | 0.00 | 0.00 | 10 | 1009.9 |
| 20260506222121 | 10 | 300 | 9.7 | 0.0 | 0.00 | 0.00 | 0.00 | 10 | 1009.8 |
| 20260506221621 | 10 | 300 | 9.7 | 0.0 | 0.00 | 0.00 | 0.00 | 10 | 1009.8 |
| 20260506221121 | 11 | 300 | 9.7 | 0.0 | 0.00 | 0.00 | 0.00 | 10 | 1009.8 |
| 20260506220621 | 10 | 310 | 9.7 | 0.0 | 0.00 | 0.00 | 0.00 | 10 | 1009.9 |
| 20260506220121 | 11 | 310 | 9.7 | 0.0 | 0.00 | 0.00 | 0.00 | 10 | 1009.8 |
| 20260506215621 | 11 | 310 | 9.7 | 0.0 | 0.00 | 0.00 | 0.00 | 10 | 1009.8 |
| 20260506215120 | 10 | 310 | 9.7 | 0.0 | 0.00 | 0.00 | 0.00 | 10 | 1009.8 |
| 20260506214620 | 11 | 310 | 9.7 | 0.0 | 0.00 | 0.00 | 0.00 | 10 | 1009.7 |
| 20260506214120 | 11 | 270 | 8.0 | 0.0 | 0.00 | 0.00 | 0.00 | 10 | 1009.8 |
| 20260506213620 | 182 | 270 | 8.0 | 0.0 | 0.00 | 0.00 | 0.00 | 10 | 1298.3 |
| 20260506213120 | 11 | 270 | 8.0 | 0.0 | 0.00 | 0.00 | 0.00 | 10 | 1009.8 |
| 20260506212620 | 182 | 270 | 8.0 | 0.0 | 0.00 | 0.00 | 0.00 | 10 | 1298.0 |
| 20260506212120 | 182 | 270 | 8.0 | 0.0 | 0.00 | 0.00 | 0.00 | 10 | 1297.2 |
| 20260506211620 | 182 | 270 | 8.0 | 0.0 | 0.00 | 0.00 | 0.00 | 10 | -186.4 |
| 20260506211120 | 182 | 270 | 8.0 | 0.0 | 0.00 | 0.00 | 0.00 | 10 | -186.4 |
| 20260506210620 | 182 | 310 | 9.7 | 0.0 | 0.00 | 0.00 | 0.00 | 10 | -186.4 |
| 20260506210120 | 182 | 310 | 9.7 | 0.0 | 0.00 | 0.00 | 0.00 | 10 | -186.4 |
| 20260506205620 | 11 | 300 | 9.7 | 0.0 | 0.00 | 0.00 | 0.00 | 10 | 1009.5 |
| 20260506205119 | 182 | 300 | 9.7 | 0.0 | 0.00 | 0.00 | 0.00 | 10 | 1009.5 |
| 20260506204619 | 182 | 300 | 9.7 | 0.0 | 0.00 | 0.00 | 0.00 | 10 | -186.4 |
| 20260506204120 | 182 | 320 | 8.0 | 0.0 | 0.00 | 0.00 | 0.00 | 10 | -186.4 |
| 20260506203619 | 182 | 320 | 8.0 | 0.0 | 0.00 | 0.00 | 0.00 | 10 | -186.4 |
| 20260506203119 | 182 | 300 | 6.4 | 0.0 | 0.00 | 0.00 | 0.00 | 10 | 1296.7 |
| 20260506202619 | 182 | 300 | 6.4 | 0.0 | 0.00 | 0.00 | 0.00 | 10 | 1296.7 |
| 20260506202119 | 182 | 300 | 6.4 | 0.0 | 0.00 | 0.00 | 0.00 | 10 | 1296.3 |
| 20260506201619 | 182 | 300 | 6.4 | 0.0 | 0.00 | 0.00 | 0.00 | 10 | -186.4 |
| 20260506201119 | 182 | 300 | 6.4 | 0.0 | 0.00 | 0.00 | 0.00 | 10 | 1295.7 |
| 20260506200619 | 11 | 300 | 6.4 | 0.0 | 0.00 | 0.00 | 0.00 | 10 | 1009.0 |
| 20260506200119 | 182 | 340 | 6.4 | 0.0 | 0.00 | 0.00 | 0.00 | 10 | 1009.0 |
| 20260506195619 | 182 | 340 | 6.4 | 0.0 | 0.00 | 0.00 | 0.00 | 10 | 1295.4 |
| 20260506195119 | 182 | 340 | 6.4 | 0.0 | 0.00 | 0.00 | 0.00 | 10 | 1295.3 |
| 20260506194619 | 182 | 340 | 6.4 | 0.0 | 0.00 | 0.00 | 0.00 | 10 | -186.4 |
| 20260506194119 | 182 | 340 | 6.4 | 0.0 | 0.00 | 0.00 | 0.00 | 10 | -186.4 |
| 20260506193619 | 182 | 290 | 6.4 | 0.0 | 0.00 | 0.00 | 0.00 | 10 | 1295.2 |
| 20260506193119 | 182 | 290 | 6.4 | 0.0 | 0.00 | 0.00 | 0.00 | 10 | -186.4 |
| 20260506192619 | 182 | 290 | 6.4 | 0.0 | 0.00 | 0.00 | 0.00 | 10 | 1294.5 |
| 20260506192119 | 182 | 290 | 6.4 | 0.0 | 0.00 | 0.00 | 0.00 | 10 | -186.4 |
| 20260506191618 | 182 | 310 | 9.7 | 0.0 | 0.00 | 0.00 | 0.00 | 10 | -186.4 |
| 20260506191119 | 182 | 310 | 9.7 | 0.0 | 0.00 | 0.00 | 0.00 | 10 | 1293.6 |
| 20260506190618 | 182 | 310 | 11.3 | 0.0 | 0.00 | 0.00 | 0.00 | 10 | 1293.5 |
| 20260506190118 | 182 | 310 | 11.3 | 0.0 | 0.00 | 0.00 | 0.00 | 10 | -186.4 |
| 20260506185618 | 182 | 310 | 11.3 | 0.0 | 0.00 | 0.00 | 0.00 | 10 | 1293.7 |
| 20260506185118 | 182 | 310 | 11.3 | 0.0 | 0.00 | 0.00 | 0.00 | 10 | 1293.0 |
| 20260506184619 | 182 | 310 | 11.3 | 0.0 | 0.00 | 0.00 | 0.00 | 10 | 1291.5 |
| 20260506184118 | 182 | 310 | 11.3 | 0.0 | 0.00 | 0.00 | 0.00 | 10 | -186.4 |
| 20260506183618 | 182 | 310 | 11.3 | 0.0 | 0.00 | 0.00 | 0.00 | 10 | 1291.8 |
| 20260506183118 | 182 | 310 | 11.3 | 0.0 | 0.00 | 0.00 | 0.00 | 10 | -186.4 |
| 20260506182618 | 12 | 310 | 11.3 | 0.0 | 0.00 | 0.00 | 0.00 | 10 | 1007.6 |
| 20260506182118 | 182 | 310 | 9.7 | 0.0 | 0.00 | 0.00 | 0.00 | 10 | -186.4 |
| 20260506181618 | 182 | 310 | 9.7 | 0.0 | 0.00 | 0.00 | 0.00 | 10 | 1007.6 |
| 20260506181118 | 182 | 300 | 8.0 | 0.0 | 0.00 | 0.00 | 0.00 | 10 | 1007.5 |
| 20260506180618 | 13 | 300 | 8.0 | 0.0 | 0.00 | 0.00 | 0.00 | 10 | 1007.5 |
| 20260506180118 | 13 | 300 | 8.0 | 0.0 | 0.00 | 0.00 | 0.00 | 10 | 1007.3 |
| 20260506175618 | 13 | 320 | 9.7 | 0.0 | 0.00 | 0.00 | 0.00 | 10 | 1007.2 |
| 20260506175118 | 13 | 320 | 9.7 | 0.0 | 0.00 | 0.00 | 0.00 | 10 | 1007.2 |
| 20260506174617 | 13 | 320 | 9.7 | 0.0 | 0.00 | 0.00 | 0.00 | 10 | 1007.3 |
| 20260506174118 | 13 | 320 | 9.7 | 0.0 | 0.00 | 0.00 | 0.00 | 10 | 1007.2 |
| 20260506173617 | 13 | 320 | 12.9 | 0.0 | 0.00 | 0.00 | 0.00 | 10 | 1007.2 |
| 20260506173117 | 13 | 320 | 12.9 | 0.0 | 0.00 | 0.00 | 0.00 | 10 | 1007.1 |
| 20260506172617 | 13 | 330 | 12.9 | 0.0 | 0.00 | 0.00 | 0.00 | 10 | 1007.1 |
| 20260506172117 | 13 | 330 | 12.9 | 0.0 | 0.00 | 0.00 | 0.00 | 10 | 1007.0 |
| 20260506171617 | 13 | 330 | 12.9 | 0.0 | 0.00 | 0.00 | 0.00 | 10 | 1007.0 |
| 20260506171117 | 13 | 310 | 9.7 | 0.0 | 0.00 | 0.00 | 0.00 | 10 | 1007.0 |
| 20260506170617 | 13 | 310 | 9.7 | 0.0 | 0.00 | 0.00 | 0.00 | 10 | 1007.0 |
| 20260506170117 | 13 | 310 | 9.7 | 0.0 | 0.00 | 0.00 | 0.00 | 10 | 1007.0 |
| 20260506165617 | 13 | 310 | 9.7 | 0.0 | 0.00 | 0.00 | 0.00 | 10 | 1007.0 |
| 20260506165117 | 13 | 310 | 9.7 | 0.0 | 0.00 | 0.00 | 0.00 | 10 | 1006.8 |
| 20260506164617 | 13 | 310 | 9.7 | 0.0 | 0.00 | 0.00 | 0.00 | 10 | 1006.8 |
| 20260506164117 | 13 | 280 | 9.7 | 0.0 | 0.00 | 0.00 | 0.00 | 10 | 1006.8 |
| 20260506163617 | 14 | 280 | 9.7 | 0.0 | 0.00 | 0.00 | 0.00 | 10 | 1006.8 |
| 20260506163117 | 13 | 280 | 9.7 | 0.0 | 0.00 | 0.00 | 0.00 | 10 | 1006.8 |
| 20260506162617 | 13 | 280 | 9.7 | 0.0 | 0.00 | 0.00 | 0.00 | 10 | 1006.8 |
| 20260506162116 | 13 | 280 | 9.7 | 0.0 | 0.00 | 0.00 | 0.00 | 10 | 1006.7 |
| 20260506161616 | 13 | 280 | 9.7 | 0.0 | 0.00 | 0.00 | 0.00 | 10 | 1006.7 |
| 20260506161116 | 14 | 270 | 14.5 | 0.0 | 0.00 | 0.00 | 0.00 | 10 | 1006.7 |
| 20260506160616 | 15 | 270 | 14.5 | 0.0 | 0.00 | 0.00 | 0.00 | 10 | 1006.6 |
| 20260506160116 | 14 | 270 | 14.5 | 0.0 | 0.00 | 0.00 | 0.00 | 10 | 1006.7 |
| 20260506155617 | 14 | 270 | 14.5 | 0.0 | 0.00 | 0.00 | 0.00 | 10 | 1006.6 |
| 20260506155116 | 15 | 270 | 14.5 | 0.0 | 0.00 | 0.00 | 0.00 | 10 | 1006.5 |
| 20260506154616 | 15 | 270 | 14.5 | 0.0 | 0.00 | 0.00 | 0.00 | 10 | 1006.5 |
| 20260506154116 | 15 | 270 | 14.5 | 0.0 | 0.00 | 0.00 | 0.00 | 10 | 1006.5 |
| 20260506153616 | 15 | 280 | 14.5 | 27.4 | 0.00 | 0.00 | 0.00 | 10 | 1006.4 |
| 20260506153116 | 15 | 280 | 14.5 | 27.4 | 0.00 | 0.00 | 0.00 | 10 | 1006.4 |
| 20260506152616 | 15 | 280 | 14.5 | 27.4 | 0.00 | 0.00 | 0.00 | 10 | 1006.4 |
| 20260506152116 | 15 | 280 | 14.5 | 27.4 | 0.00 | 0.00 | 0.00 | 10 | 1006.4 |
| 20260506151616 | 15 | 280 | 14.5 | 27.4 | 0.00 | 0.00 | 0.00 | 10 | 1006.4 |
| 20260506151116 | 15 | 280 | 14.5 | 27.4 | 0.00 | 0.00 | 0.00 | 10 | 1006.4 |
| 20260506150616 | 15 | 260 | 14.5 | 19.3 | 0.00 | 0.00 | 0.00 | 10 | 1006.3 |
| 20260506150116 | 15 | 260 | 14.5 | 19.3 | 0.00 | 0.00 | 0.00 | 10 | 1006.3 |
| 20260506145615 | 15 | 260 | 14.5 | 19.3 | 0.00 | 0.00 | 0.00 | 10 | 1006.3 |
| 20260506145115 | 15 | 250 | 11.3 | 0.0 | 0.00 | 0.00 | 0.00 | 10 | 1006.2 |
| 20260506144615 | 15 | 250 | 11.3 | 0.0 | 0.00 | 0.00 | 0.00 | 10 | 1006.2 |
| 20260506144115 | 15 | 250 | 11.3 | 0.0 | 0.00 | 0.00 | 0.00 | 10 | 1006.2 |
| 20260506143615 | 15 | 230 | 14.5 | 0.0 | 0.00 | 0.00 | 0.00 | 10 | 1006.1 |
| 20260506143115 | 15 | 230 | 14.5 | 0.0 | 0.00 | 0.00 | 0.00 | 10 | 1006.2 |
| 20260506142615 | 15 | 230 | 14.5 | 0.0 | 0.00 | 0.00 | 0.00 | 10 | 1006.1 |
| 20260506142115 | 15 | 230 | 14.5 | 0.0 | 0.00 | 0.00 | 0.00 | 10 | 1006.1 |
| 20260506141615 | 16 | 230 | 14.5 | 0.0 | 0.00 | 0.00 | 0.00 | 10 | 1006.1 |
| 20260506141115 | 16 | 230 | 14.5 | 0.0 | 0.00 | 0.00 | 0.00 | 10 | 1006.0 |
| 20260506140615 | 17 | 240 | 14.5 | 0.0 | 0.00 | 0.00 | 0.00 | 95 | 1006.0 |
| 20260506140115 | 18 | 240 | 14.5 | 0.0 | 0.00 | 0.00 | 0.00 | 92 | 1005.9 |
| 20260506135615 | 17 | 240 | 14.5 | 0.0 | 0.00 | 0.00 | 0.00 | 96 | 1005.9 |
| 20260506135115 | 17 | 240 | 14.5 | 0.0 | 0.00 | 0.00 | 0.00 | 90 | 1005.8 |
| 20260506134615 | 18 | 240 | 14.5 | 0.0 | 0.00 | 0.00 | 0.00 | 84 | 1005.8 |
| 20260506134115 | 17 | 220 | 11.3 | 0.0 | 0.00 | 0.00 | 0.00 | 85 | 1005.8 |
| 20260506133614 | 17 | 220 | 11.3 | 0.0 | 0.00 | 0.00 | 0.00 | 82 | 1005.8 |
| 20260506133115 | 17 | 220 | 11.3 | 0.0 | 0.00 | 0.00 | 0.00 | 86 | 1005.9 |
| 20260506132614 | 17 | 220 | 11.3 | 0.0 | 0.00 | 0.00 | 0.00 | 86 | 1005.9 |
| 20260506132114 | 17 | 220 | 11.3 | 0.0 | 0.00 | 0.00 | 0.00 | 83 | 1005.8 |
| 20260506131614 | 17 | 220 | 11.3 | 0.0 | 0.00 | 0.00 | 0.00 | 82 | 1005.8 |
| 20260506131114 | 17 | 190 | 14.5 | 0.0 | 0.00 | 0.00 | 0.00 | 80 | 1005.7 |
| 20260506130614 | 17 | 190 | 14.5 | 0.0 | 0.00 | 0.00 | 0.00 | 76 | 1005.6 |
| 20260506130114 | 18 | 190 | 14.5 | 0.0 | 0.00 | 0.00 | 0.00 | 73 | 1005.6 |
| 20260506125614 | 18 | 190 | 14.5 | 0.0 | 0.00 | 0.00 | 0.00 | 74 | 1005.7 |
| 20260506125114 | 18 | 190 | 14.5 | 0.0 | 0.00 | 0.00 | 0.00 | 74 | 1005.7 |
| 20260506124614 | 17 | 190 | 14.5 | 0.0 | 0.00 | 0.00 | 0.00 | 76 | 1005.8 |
| 20260506124114 | 17 | 220 | 14.5 | 0.0 | 0.00 | 0.00 | 0.00 | 77 | 1005.8 |
| 20260506123614 | 17 | 220 | 14.5 | 0.0 | 0.00 | 0.00 | 0.00 | 76 | 1005.8 |
| 20260506123114 | 17 | 220 | 14.5 | 0.0 | 0.00 | 0.00 | 0.00 | 74 | 1005.9 |
| 20260506122614 | 18 | 220 | 14.5 | 0.0 | 0.00 | 0.00 | 0.00 | 73 | 1005.8 |
| 20260506122114 | 18 | 220 | 14.5 | 0.0 | 0.00 | 0.00 | 0.00 | 73 | 1005.7 |
| 20260506121614 | 18 | 220 | 14.5 | 0.0 | 0.00 | 0.00 | 0.00 | 80 | 1005.8 |
| 20260506121114 | 17 | 220 | 14.5 | 0.0 | 0.00 | 0.00 | 0.00 | 81 | 1005.8 |
| 20260506120614 | 17 | 210 | 14.5 | 0.0 | 0.00 | 0.00 | 0.00 | 81 | 1005.8 |
| 20260506120114 | 17 | 210 | 14.5 | 0.0 | 0.00 | 0.00 | 0.00 | 82 | 1005.8 |
| 20260506115613 | 17 | 210 | 14.5 | 0.0 | 0.00 | 0.00 | 0.00 | 80 | 1005.8 |
| 20260506115113 | 17 | 210 | 14.5 | 0.0 | 0.00 | 0.00 | 0.00 | 80 | 1005.8 |
| 20260506114613 | 17 | 210 | 14.5 | 0.0 | 0.00 | 0.00 | 0.00 | 82 | 1005.8 |
| 20260506114113 | 17 | 230 | 16.1 | 0.0 | 0.00 | 0.00 | 0.00 | 80 | 1005.8 |
| 20260506113613 | 17 | 230 | 16.1 | 0.0 | 0.00 | 0.00 | 0.00 | 81 | 1005.7 |
| 20260506113113 | 17 | 230 | 16.1 | 0.0 | 0.00 | 0.00 | 0.00 | 83 | 1005.7 |
| 20260506112613 | 17 | 230 | 16.1 | 0.0 | 0.00 | 0.00 | 0.00 | 83 | 1005.8 |
| 20260506112113 | 17 | 230 | 16.1 | 0.0 | 0.00 | 0.00 | 0.00 | 79 | 1005.8 |
| 20260506111613 | 18 | 230 | 16.1 | 0.0 | 0.00 | 0.00 | 0.00 | 78 | 1005.8 |
| 20260506111113 | 18 | 210 | 14.5 | 0.0 | 0.00 | 0.00 | 0.00 | 74 | 1005.9 |
| 20260506110613 | 17 | 210 | 14.5 | 0.0 | 0.00 | 0.00 | 0.00 | 73 | 1006.0 |
| 20260506110113 | 18 | 210 | 14.5 | 0.0 | 0.00 | 0.00 | 0.00 | 73 | 1005.9 |
| 20260506105613 | 17 | 210 | 14.5 | 0.0 | 0.00 | 0.00 | 0.00 | 75 | 1005.9 |
| 20260506105113 | 18 | 210 | 14.5 | 0.0 | 0.00 | 0.00 | 0.00 | 82 | 1005.9 |
| 20260506104613 | 18 | 220 | 14.5 | 0.0 | 0.00 | 0.00 | 0.00 | 82 | 1006.0 |
| 20260506104113 | 17 | 220 | 14.5 | 0.0 | 0.00 | 0.00 | 0.00 | 85 | 1006.0 |
| 20260506103612 | 17 | 220 | 14.5 | 0.0 | 0.00 | 0.00 | 0.00 | 92 | 1006.1 |
| 20260506103112 | 16 | 220 | 14.5 | 0.0 | 0.00 | 0.00 | 0.00 | 93 | 1006.0 |
| 20260506102612 | 16 | 220 | 14.5 | 0.0 | 0.00 | 0.00 | 0.00 | 97 | 1006.0 |
| 20260506102112 | 16 | 220 | 14.5 | 0.0 | 0.00 | 0.00 | 0.00 | 95 | 1006.1 |
| 20260506101612 | 16 | 220 | 14.5 | 0.0 | 0.00 | 0.00 | 0.00 | 97 | 1006.0 |
| 20260506101112 | 16 | 220 | 14.5 | 0.0 | 0.00 | 0.00 | 0.00 | 98 | 1006.0 |
| 20260506100612 | 16 | 220 | 14.5 | 0.0 | 0.00 | 0.00 | 0.00 | 97 | 1006.0 |
| 20260506100112 | 16 | 220 | 14.5 | 0.0 | 0.00 | 0.00 | 0.00 | 94 | 1006.0 |
| 20260506095612 | 16 | 220 | 14.5 | 0.0 | 0.00 | 0.00 | 0.00 | 94 | 1006.0 |
| 20260506095112 | 16 | 220 | 14.5 | 0.0 | 0.00 | 0.00 | 0.00 | 95 | 1005.9 |
| 20260506094612 | 17 | 220 | 14.5 | 0.0 | 0.00 | 0.00 | 0.00 | 90 | 1006.0 |
| 20260506094112 | 16 | 220 | 14.5 | 0.0 | 0.00 | 0.00 | 0.00 | 96 | 1005.9 |
| 20260506093612 | 17 | 200 | 12.9 | 0.0 | 0.00 | 0.00 | 0.00 | 10 | 1006.0 |